GW4436 Weather Reports


Display with metric or nautical units.
time (UTC)temp
F
wind
direction
speed
MPH
gust
MPH
rain 1hr
in
rain 24hr
in
rain mn
in
humidity
%
barometer
mb
20260906181539 86 186 3.0 8.0 0.03 0.03 0.03 81 1012.3
20260906180026 90 267 5.0 8.0 0.00 0.00 0.00 68 1012.3
20260906174546 90 240 0.0 5.0 0.00 0.00 0.00 69 1012.2
20260906173035 91 342 2.0 6.0 0.00 0.00 0.00 69 1012.3
20260906171533 91 319 4.0 17.0 0.00 0.00 0.00 72 1012.6
20260906170014 90 197 4.0 10.0 0.00 0.00 0.00 72 1012.7
20260906164504 89 307 3.0 7.0 0.00 0.00 0.00 72 1012.9
20260906163005 89 293 5.0 8.0 0.00 0.00 0.00 72 1013.0
20260906161512 89 245 3.0 7.0 0.00 0.00 0.00 72 1013.3
20260906160035 88 311 4.0 7.0 0.00 0.00 0.00 74 1013.5
20260906154509 87 316 5.0 6.0 0.00 0.00 0.00 76 1013.6
20260906153012 87 285 4.0 8.0 0.00 0.00 0.00 76 1013.7
20260906151549 87 340 4.0 7.0 0.00 0.00 0.00 78 1013.7
20260906150022 86 340 5.0 7.0 0.00 0.00 0.00 81 1013.5
20260906144521 86 333 2.0 7.0 0.00 0.00 0.00 82 1013.7
20260906143002 85 284 5.0 7.0 0.00 0.00 0.00 83 1013.5
20260906141520 83 294 4.0 7.0 0.00 0.00 0.00 87 1013.4
20260906140035 82 256 1.0 4.0 0.00 0.00 0.00 88 1013.6
20260906134522 81 270 3.0 5.0 0.00 0.00 0.00 89 1013.6
20260906133029 80 253 2.0 6.0 0.00 0.00 0.00 92 1013.5
20260906131531 79 266 3.0 6.0 0.00 0.00 0.00 92 1013.7
20260906130011 79 255 2.0 6.0 0.00 0.00 0.00 92 1013.7
20260906124533 78 241 2.0 4.0 0.00 0.00 0.00 93 1013.6
20260906123037 78 238 4.0 6.0 0.00 0.00 0.00 94 1013.5
20260906121523 77 266 2.0 5.0 0.00 0.00 0.00 95 1013.6
20260906120008 77 232 0.0 2.0 0.00 0.00 0.00 95 1013.5
20260906114518 76 252 1.0 3.0 0.00 0.00 0.00 95 1013.5
20260906113020 76 309 0.0 2.0 0.00 0.00 0.00 95 1013.3
20260906111529 76 294 1.0 4.0 0.00 0.00 0.00 95 1013.1
20260906110010 76 302 1.0 4.0 0.00 0.00 0.00 95 1012.9
20260906104518 76 288 1.0 4.0 0.00 0.00 0.00 95 1012.6
20260906103023 77 216 1.0 3.0 0.00 0.00 0.00 94 1012.5
20260906101530 77 207 1.0 4.0 0.00 0.00 0.00 94 1012.3
20260906100008 77 232 1.0 6.0 0.00 0.00 0.00 94 1012.4
20260906094502 77 249 1.0 6.0 0.00 0.00 0.00 94 1012.3
20260906093004 77 260 1.0 5.0 0.00 0.00 0.00 94 1012.3
20260906091504 77 281 2.0 5.0 0.00 0.00 0.00 94 1012.3
20260906090008 77 214 2.0 4.0 0.00 0.00 0.00 94 1012.3
20260906084504 77 251 1.0 3.0 0.00 0.00 0.00 94 1012.1
20260906083005 77 291 1.0 5.0 0.00 0.00 0.00 94 1011.9
20260906081506 77 257 1.0 4.0 0.00 0.00 0.00 93 1012.0
20260906080004 78 251 0.0 3.0 0.00 0.00 0.00 93 1012.2
20260906074504 78 298 1.0 3.0 0.00 0.00 0.00 93 1012.1
20260906073003 78 253 2.0 3.0 0.00 0.00 0.00 93 1012.3
20260906071503 78 274 2.0 4.0 0.00 0.00 0.00 93 1012.2
20260906070003 78 286 3.0 6.0 0.00 0.00 0.00 93 1012.3
20260906064503 78 273 3.0 5.0 0.00 0.00 0.00 93 1012.3
20260906063006 78 284 1.0 6.0 0.00 0.00 0.00 92 1012.3
20260906061506 78 257 2.0 5.0 0.00 0.00 0.00 92 1012.6
20260906060003 78 205 3.0 4.0 0.00 0.00 0.00 92 1012.8
20260906054506 79 281 0.0 2.0 0.00 0.00 0.00 91 1012.9
20260906053008 79 216 2.0 4.0 0.00 0.00 0.00 91 1012.9
20260906051508 79 214 1.0 7.0 0.00 0.00 0.00 91 1012.9
20260906050006 79 194 3.0 5.0 0.00 0.00 0.00 91 1013.0
20260906044506 79 237 2.0 5.0 0.00 0.00 0.00 91 1012.9
20260906043008 80 221 2.0 5.0 0.00 0.00 0.00 91 1012.9
20260906041509 80 203 2.0 5.0 0.00 0.00 0.00 91 1012.7
20260906040025 80 197 3.0 4.0 0.00 0.00 0.00 91 1013.0
20260906034506 80 202 2.0 3.0 0.00 0.00 0.00 90 1013.2
20260906033009 81 184 1.0 2.0 0.00 0.00 0.00 90 1013.4
20260906031503 81 185 0.0 3.0 0.00 0.00 0.00 89 1013.6
20260906030003 81 197 1.0 3.0 0.00 0.00 0.00 89 1013.5
20260906024503 82 230 1.0 2.0 0.00 0.00 0.00 89 1013.6
20260906023007 82 207 1.0 2.0 0.00 0.00 0.00 89 1013.5
20260906021530 82 194 1.0 2.0 0.00 0.00 0.00 89 1013.4
20260906020019 83 178 1.0 2.0 0.00 0.00 0.00 87 1013.3
20260906014532 83 198 1.0 3.0 0.00 0.00 0.00 87 1013.0
20260906013004 83 218 1.0 2.0 0.00 0.00 0.00 88 1012.8
20260906011514 82 187 0.0 2.0 0.00 0.00 0.00 89 1012.5
20260906010016 82 152 1.0 3.0 0.00 0.00 0.00 91 1012.5
20260906004504 82 188 2.0 3.0 0.00 0.00 0.00 89 1012.2
20260906003016 83 143 1.0 2.0 0.00 0.00 0.00 88 1012.0
20260906001518 84 143 0.0 3.0 0.00 0.00 0.00 86 1012.0
20260906000020 85 112 0.0 2.0 0.00 0.00 0.00 84 1011.8
20260905234504 86 229 0.0 0.0 0.00 0.00 0.00 83 1011.8
20260905233005 88 229 0.0 1.0 0.00 0.00 0.00 80 1011.8
20260905231527 89 231 0.0 2.0 0.00 0.00 0.00 75 1011.8
20260905230020 90 238 0.0 2.0 0.00 0.00 0.00 76 1011.9
20260905224520 89 312 0.0 2.0 0.00 0.00 0.00 71 1012.2
20260905223026 89 312 0.0 1.0 0.00 0.00 0.00 76 1012.4
20260905221516 89 255 1.0 2.0 0.00 0.00 0.00 71 1012.4
20260905220011 90 273 1.0 3.0 0.00 0.00 0.00 69 1012.4
20260905214530 90 311 3.0 5.0 0.00 0.00 0.00 67 1012.4
20260905213023 91 273 2.0 6.0 0.00 0.01 0.00 64 1012.6
20260905211528 91 320 2.0 6.0 0.00 0.02 0.00 65 1012.7
20260905210013 91 222 3.0 7.0 0.00 0.04 0.00 67 1012.7
20260905204534 90 350 3.0 7.0 0.00 0.07 0.00 67 1012.7
20260905203028 90 245 2.0 8.0 0.00 0.09 0.00 69 1012.7
20260905201528 90 299 3.0 5.0 0.00 0.09 0.00 71 1012.7
20260905200006 89 293 5.0 9.0 0.00 0.10 0.00 68 1012.6
20260905194519 90 255 5.0 10.0 0.00 0.12 0.00 68 1012.7
20260905193022 89 331 6.0 10.0 0.00 0.15 0.00 72 1013.1
20260905191536 89 317 3.0 7.0 0.00 0.23 0.00 72 1013.3
20260905190031 88 338 6.0 8.0 0.00 0.33 0.00 72 1013.4
20260905184525 88 334 7.0 11.0 0.00 0.40 0.00 73 1013.6
20260905183031 88 282 3.0 10.0 0.00 1.21 0.00 73 1013.7